This is the latest recevied weather packets stored in our database for station/object S57PNX-8. If no packets are shown the sender has not sent any weather packets the latest 10 day(s).
| Time | Temp. | Humidity | Pressure | Rain* | Wind** | Luminosity | Snow |
|---|---|---|---|---|---|---|---|
| 1788211763 | 21.11° C | 57% | 1023.2 hPa | - | - | - | - |
| 1788210864 | 21.11° C | 57% | 1023.1 hPa | - | - | - | - |
| 1788209964 | 21.67° C | 57% | 1023 hPa | - | - | - | - |
| 1788209065 | 21.67° C | 56% | 1023.1 hPa | - | - | - | - |
| 1788208165 | 21.67° C | 56% | 1023.1 hPa | - | - | - | - |
| 1788207267 | 21.67° C | 56% | 1023 hPa | - | - | - | - |
| 1788206368 | 21.67° C | 55% | 1022.8 hPa | - | - | - | - |
| 1788205468 | 22.22° C | 55% | 1022.6 hPa | - | - | - | - |
| 1788204569 | 22.22° C | 55% | 1022.5 hPa | - | - | - | - |
| 1788203670 | 22.22° C | 53% | 1022.3 hPa | - | - | - | - |
| 1788202771 | 22.22° C | 52% | 1022.1 hPa | - | - | - | - |
| 1788201872 | 22.78° C | 53% | 1021.8 hPa | - | - | - | - |
| 1788201393 | 22.78° C | 53% | 1021.8 hPa | - | - | - | - |
| 1788200494 | 23.33° C | 54% | 1021.6 hPa | - | - | - | - |
| 1788199595 | 23.89° C | 53% | 1021.5 hPa | - | - | - | - |
| 1788198696 | 24.44° C | 55% | 1021.7 hPa | - | - | - | - |
| 1788197801 | 26.11° C | 52% | 1021.7 hPa | - | - | - | - |
| 1788196897 | 26.67° C | 49% | 1021.8 hPa | - | - | - | - |
| 1788195998 | 28.33° C | 43% | 1021.8 hPa | - | - | - | - |
| 1788195099 | 31.11° C | 36% | 1021.9 hPa | - | - | - | - |
| 1788194200 | 31.67° C | 35% | 1021.9 hPa | - | - | - | - |
| 1788193301 | 33.89° C | 30% | 1022.1 hPa | - | - | - | - |
| 1788192402 | 35° C | 30% | 1022.2 hPa | - | - | - | - |
| 1788192017 | 35.56° C | 30% | 1022.1 hPa | - | - | - | - |
| 1788191503 | 35.56° C | 30% | 1022.1 hPa | - | - | - | - |
* Rain since midnight (hover to see other rain measurements)
** Current wind speed in m/s (hover to see current wind gust speed)